Overview Statistics Trail Chart Weather Telemetry Raw packets
 

This is the latest recevied weather packets stored in our database for station/object W5GMO. If no packets are shown the sender has not sent any weather packets the latest 10 day(s).

<< 16 17 18 19 20 21 22 >>
Time Temp. Humidity Pressure Rain* Wind** Luminosity Snow
1788525916 25.56° C 1% 1014.9 hPa 0 mm - 304 W/m² -
1788525612 24.44° C 1% 1015.1 hPa 0 mm - 265 W/m² -
1788525311 24.44° C 1% 1015.1 hPa 0 mm - 268 W/m² -
1788525007 24.44° C 1% 1015.1 hPa 0 mm - 245 W/m² -
1788524701 23.89° C 1% 1014.9 hPa 0 mm - 213 W/m² -
1788524395 23.89° C 1% 1014.7 hPa 0 mm - 195 W/m² -
1788524092 23.89° C 1% 1014.8 hPa 0 mm - 180 W/m² -
1788523788 23.89° C 1% 1014.9 hPa 0 mm - 165 W/m² -
1788523483 23.89° C 1% 1014.9 hPa 0 mm - 152 W/m² -
1788523178 23.89° C 1% 1014.8 hPa 0 mm - 135 W/m² -
1788522874 23.33° C 1% 1014.8 hPa 0 mm - 117 W/m² -
1788522574 23.33° C 1% 1014.8 hPa 0 mm - 95 W/m² -
1788522268 23.33° C 1% 1015.1 hPa 0 mm - 85 W/m² -
1788521964 23.33° C 1% 1014.8 hPa 0 mm - 76 W/m² -
1788521663 23.33° C 1% 1014.8 hPa 0 mm - 73 W/m² -
1788521362 23.33° C 1% 1014.8 hPa 0 mm - 60 W/m² -
1788521058 23.33° C 1% 1014.8 hPa 0 mm - 51 W/m² -
1788520771 22.78° C 1% 1014.7 hPa 0 mm - 35 W/m² -
1788520449 22.78° C 1% 1014.8 hPa 0 mm - 31 W/m² -
1788520145 22.78° C 1% 1014.5 hPa 0 mm - 25 W/m² -
1788519844 22.22° C 1% 1014.8 hPa 0 mm - 19 W/m² -
1788519539 22.22° C 1% 1014.6 hPa 0 mm - 13 W/m² -
1788519234 22.22° C 1% 1014.9 hPa 0 mm - 9 W/m² -
1788518929 22.22° C 1% 1014.6 hPa 0 mm - 6 W/m² -
1788518623 22.22° C 1% 1014.6 hPa 0 mm - 4 W/m² -

* Rain latest hour (hover to see other rain measurements)
** Current wind speed in m/s (hover to see current wind gust speed)